Regional Weather Roundup
Issued by NWS Jackson, KY

Home | Current Version | Previous Version | Graphics & Text | Print | Product List | Glossary On
Versions: 1 2 3 4 5 6 7 8 9 10 11 12 13 14 15 16 17 18 19 20 21 22 23 24 25 26 27 28 29 30 31 32 33 34 35 36 37 38 39 40 41 42 43 44 45 46 47 48 49 50
000
ASUS43 KJKL 250005
RWRJKL

EAST KENTUCKY HOURLY WEATHER ROUNDUP
NATIONAL WEATHER SERVICE JACKSON KY
800 PM EDT FRI OCT 24 2014

NOTE: "FAIR" INDICATES FEW OR NO CLOUDS BELOW 12,000 FEET WITH
NO SIGNIFICANT WEATHER AND/OR OBSTRUCTIONS TO VISIBILITY.

* THESE REPORTS ARE NOT UNDER NWS QUALITY CONTROL AND MAY NOT
  REPORT WEATHER SUCH AS PRECIPITATION AND FOG.

KYZ079-080-083-085-087-088-110-112-115-119-120-250100
...EASTERN KENTUCKY...

CITY           SKY/WX    TMP DP  RH WIND       PRES   REMARKS
JACKSON        CLEAR     58  41  53 CALM      30.06S
6HR MIN TEMP:  57; 6HR MAX TEMP:  63;

LONDON         CLEAR     54  43  66 CALM      30.06S
6HR MIN TEMP:  54; 6HR MAX TEMP:  67;

SOMERSET*      CLEAR     52  45  76 CALM      30.08R
MONTICELLO*    CLEAR     45  41  86 CALM      30.09R
6HR MIN TEMP:  45; 6HR MAX TEMP:  69;

MIDDLESBORO*   CLEAR     51  42  71 CALM      30.08R
6HR MIN TEMP:  51; 6HR MAX TEMP:  67;

HARLAN APT*    CLEAR     54  37  54 CALM      30.07S
BLACK MTN*       N/A     45  37  76 N5          N/A
PIKEVILLE APT* CLEAR     54  39  58 CALM      30.07S
BIG SANDY*     CLEAR     52  43  71 CALM      30.07R
6HR MIN TEMP:  52; 6HR MAX TEMP:  61;

MOREHEAD APT*  CLEAR     57  39  51 W3        30.08R
$$

KYZ035-036-041-042-044-050-067-078-099-250100
...CENTRAL KENTUCKY...

CITY           SKY/WX    TMP DP  RH WIND       PRES   REMARKS
MT STERLING*   CLEAR     50  43  76 CALM      30.09R
FLEMING/MASON* CLEAR     53  40  61 SW6       30.07R
DANVILLE*      PTCLDY    50  39  66 CALM      30.08R
RICHMOND*      CLEAR     54  41  62 CALM      30.07R
LEXINGTON      CLEAR     58  42  55 CALM      30.07R
6HR MIN TEMP:  56; 6HR MAX TEMP:  66;

FRANKFORT      PTCLDY    51  42  71 W5        30.06R
6HR MIN TEMP:  51; 6HR MAX TEMP:  64;

$$

KYZ091>093-OHZ055-061-077-WVZ005-015-034-035-042-250100
...SOUTHERN OHIO/WEST VIRGINIA...

CITY           SKY/WX    TMP DP  RH WIND       PRES   REMARKS
COVINGTON      MOCLDY    52  41  66 S5        30.04R
COLUMBUS       PTCLDY    57  37  47 S3        30.02R
DAYTON         MOCLDY    60  41  49 SW5       30.04R
WILMINGTON     PTCLDY    54  37  52 SW3       30.04R
HUNTINGTON     CLEAR     54  41  61 CALM      30.04S
CHARLESTON     CLEAR     52  43  71 CALM      30.05R
PINEVILLE*     CLEAR     46  45  99 MISG      30.12R
BECKLEY        CLEAR     46  37  71 CALM      30.07R
BLUEFIELD      CLEAR     50  36  58 W6        30.08R
$$

VAZ002-007-008-TNZ017-027-036-066-071-250100
...SOUTHWEST VIRGINIA/EAST TENNESSEE...

CITY           SKY/WX    TMP DP  RH WIND       PRES   REMARKS
WISE*          CLEAR     50  37  62 CALM      30.10R
JONESVILLE*    CLEAR     54  45  71 CALM      30.09R
ABINGDON*      CLEAR     50  40  68 CALM      30.07R
BRISTOL        PTCLDY    51  42  71 CALM      30.07R
KNOXVILLE      CLEAR     59  42  53 CALM      30.05R
OAK RIDGE      CLEAR     56  49  77 CALM      30.07R
CROSSVILLE     CLEAR     57  37  47 NW3       30.09R
NASHVILLE      PTCLDY    63  45  51 NW3       30.08R
$$

...KEY TO REMARKS...
VSB - VISIBILITY IN MILES
WCI - WIND CHILL INDEX
HX  - HEAT INDEX

$$



USA.gov is the U.S. government's official web portal to all federal, state and local government web resources and services.